Location: Brusselsch Zeekanaal
(50.8667°N, 4.3667°E)
Time: 23:54:54
(UTC+00:00)

Gbstr 26 Del rocket - Pass Details

Date: 08 November 2025
Orbit: 489 x 1220 km, 51.8° (Epoch: 04 December)

Event Time Altitude Azimuth Distance (km) Brightness Sun altitude
Exits shadow 03:58:41 34° 170° (S) 1,177 4.4 -26.6°
Maximum altitude 03:59:46 38° 142° (SE) 1,123 4.5 -26.4°
Drops below altitude 10° 04:05:02 10° 76° (ENE) 2,489 7.2 -25.6°
Sets 04:07:58 0° 69° (ENE) 3,565 8.2 -25.1°
